RH
11 9 9 12 14 17 18 18 18 17 17 15 17 24 29 30 26 23 22 21 20 16 20 27 27 28 26 22 26 27 29 32 33 36 38 41 43 46 50 54 60 66 69 77 86 91 93 95 96 99 95 87 81 71 62 54 42 42 53 53 51 51 42 32 36 43 39 40 45 44 44 43 41 42 41 38 35 33 32 31 33 34 35 35 35 35
11 9 11 15 16 18 18 16 16 16 15 15 21 26 30 32 23 18 20 21 22 21 22 24 23 25 23 23 28 28 31 33 35 39 41 42 45 46 51 55 60 64 69 81 93 97 97 99 97 89 74 58 45 37 35 28 22 43 67 66 55 45 43 45 49 61 58 48 55 57 51 47 44 43 43 40 35 32 29 27 26 26 27 28 28 28
11 11 15 16 16 17 15 15 16 15 17 20 23 22 23 27 24 21 22 21 22 23 23 20 22 29 28 28 31 29 32 35 38 42 43 44 46 47 52 56 58 61 72 88 96 94 92 89 75 58 41 25 18 17 19 16 16 31 37 40 48 36 43 76 82 83 89 84 85 85 79 72 64 61 57 48 41 38 34 31 27 24 22 23 24 23
13 14 16 16 17 16 14 16 15 16 22 23 20 21 22 23 26 26 22 19 20 25 28 23 24 35 36 33 33 31 34 37 39 43 44 44 45 49 54 59 64 68 80 91 91 83 76 63 45 32 23 15 15 17 20 20 15 17 15 25 53 45 34 66 88 88 93 97 100 99 98 95 85 80 79 68 59 58 59 58 52 43 35 29 24 22
15 16 16 17 17 16 17 17 16 16 19 20 20 22 23 21 23 25 20 17 21 28 32 27 26 36 41 37 34 36 39 39 41 43 44 44 45 52 58 64 75 82 89 90 80 69 58 44 29 19 13 13 17 14 12 16 13 18 26 26 44 65 62 54 53 61 79 94 101 101 99 99 98 96 98 92 84 85 86 82 77 70 61 48 34 27
16 16 16 17 18 19 20 18 18 17 18 24 25 21 21 21 21 22 21 20 24 28 31 29 28 32 37 39 38 41 42 41 44 45 44 44 46 55 65 74 86 91 90 82 70 62 49 31 17 10 8 7 9 9 9 14 15 14 20 18 20 55 85 64 34 44 71 87 94 101 101 98 100 100 101 101 97 97 95 90 88 82 73 64 52 44
16 16 16 17 19 21 21 19 19 18 21 29 26 19 20 20 21 23 21 22 27 29 30 34 34 31 33 42 44 42 43 43 44 45 43 43 49 61 74 88 96 90 82 81 76 58 31 13 6 6 11 12 8 10 11 10 14 11 16 26 18 24 47 45 50 72 74 75 90 101 100 99 102 100 98 101 99 99 99 97 97 90 78 68 60 60
16 17 17 18 20 21 20 20 21 20 23 26 23 20 20 18 22 25 21 25 32 33 34 37 37 31 29 38 41 39 45 46 43 43 42 44 53 64 79 92 88 72 69 77 65 34 11 6 10 11 13 18 13 11 12 8 11 14 15 27 31 36 38 24 47 84 76 75 97 101 98 100 100 96 96 100 100 100 100 100 101 98 88 74 65 68
17 18 17 19 20 20 21 22 22 21 23 25 22 20 19 19 24 26 26 32 36 35 33 32 34 33 28 31 36 43 51 49 42 42 44 49 55 65 80 82 72 70 72 61 31 9 8 7 9 17 22 30 30 18 14 9 7 8 10 25 40 48 45 20 28 70 86 90 100 97 98 102 99 96 98 101 100 100 100 100 100 102 99 86 77 75
17 17 18 20 20 20 22 22 21 22 23 24 22 20 22 25 27 27 30 35 39 37 30 28 33 34 32 31 35 46 50 43 41 43 47 52 58 69 78 72 68 70 54 25 8 6 8 10 30 56 55 51 52 35 16 10 15 28 38 49 47 37 40 33 29 57 87 97 97 92 91 98 100 99 98 99 100 100 100 100 99 100 95 83 75 70
16 17 18 19 20 21 22 20 21 22 24 24 24 23 26 29 30 31 32 34 36 33 28 30 34 35 36 33 35 40 38 38 41 43 49 56 63 72 74 73 74 65 33 7 10 12 6 20 63 97 80 46 35 25 14 22 40 52 48 36 25 30 54 60 46 54 79 93 98 93 87 93 97 96 97 99 100 100 100 99 97 91 81 69 62 56
16 18 19 20 21 21 21 22 23 23 26 27 26 28 30 29 29 30 31 32 33 30 28 31 34 37 37 33 35 36 35 40 42 46 55 60 68 75 77 79 75 64 49 30 17 12 18 36 53 62 55 34 21 17 18 32 44 41 28 14 10 23 49 62 57 61 81 96 101 98 96 98 97 97 99 100 99 99 96 91 87 80 68 54 42 35
21 20 21 21 21 22 22 24 26 28 29 28 28 33 34 30 31 34 31 30 32 30 29 33 39 41 36 32 35 37 38 44 46 52 60 67 79 85 89 87 57 30 34 37 25 14 28 60 65 46 35 29 23 18 13 19 26 22 15 12 12 13 21 37 47 54 74 95 102 100 100 101 99 100 101 101 99 94 88 83 78 67 50 33 23 20
27 26 24 24 24 24 24 25 29 30 31 30 31 38 40 36 41 46 37 34 37 33 33 39 45 44 37 36 39 39 43 48 50 58 70 84 93 91 97 90 48 21 30 41 38 23 25 51 59 41 25 19 20 18 10 11 15 16 12 10 13 13 12 18 25 30 44 67 86 95 99 99 100 101 100 100 96 91 86 78 65 47 29 21 18 17
27 28 25 26 27 26 25 26 28 29 32 34 34 39 44 43 47 47 39 39 43 41 42 45 43 39 36 39 43 43 48 53 58 72 87 97 92 87 95 79 49 50 59 52 39 31 40 48 36 24 19 16 19 18 13 12 12 12 11 11 12 13 13 14 17 20 22 32 50 68 80 86 90 93 93 92 89 85 74 57 40 27 19 19 19 16
27 27 24 25 26 26 25 25 27 29 32 35 37 40 44 44 47 47 43 46 50 49 47 42 37 36 38 43 46 47 51 58 75 93 96 90 86 90 89 63 47 63 75 78 63 34 30 34 22 18 18 13 15 16 15 14 13 12 10 10 10 9 11 14 14 15 15 16 22 34 48 59 68 76 78 76 70 59 44 31 24 20 17 17 16 15
28 27 24 25 27 25 26 26 26 30 31 34 41 43 41 41 47 52 51 47 47 47 43 37 36 40 43 47 48 48 53 65 83 96 90 85 92 97 87 65 52 52 56 70 64 28 14 18 15 16 16 14 13 11 12 13 15 17 13 10 11 9 10 11 12 14 13 14 14 16 21 28 36 43 44 41 35 28 22 19 19 17 15 16 15 15
28 27 25 26 27 26 26 27 27 30 31 36 42 41 39 43 48 52 50 44 45 48 42 38 42 47 48 48 47 50 61 73 81 85 85 87 91 89 88 90 79 52 34 32 25 15 15 17 16 16 14 15 12 7 9 13 20 26 23 17 13 10 10 10 11 12 12 13 14 13 14 14 16 18 17 17 16 15 15 15 16 16 15 15 15 15
27 30 29 27 28 27 27 30 34 34 32 35 40 39 39 47 49 47 48 49 54 56 48 42 45 49 49 46 46 55 66 73 75 81 86 87 90 86 79 85 81 51 24 16 12 13 15 14 16 17 14 13 12 9 8 11 19 30 35 33 24 16 13 10 9 11 11 12 13 13 14 13 13 14 14 15 14 15 15 15 16 16 14 14 15 15
27 32 33 28 28 30 29 32 36 37 36 39 44 45 45 49 50 49 52 53 52 55 55 53 50 45 45 46 52 62 69 70 74 85 93 93 93 82 58 50 51 34 15 11 12 12 13 16 18 16 16 14 11 9 8 9 17 28 40 46 39 27 18 12 10 10 10 11 12 12 13 13 13 14 14 15 15 15 15 15 16 15 15 16 17 19
27 32 34 29 28 33 33 33 33 35 39 43 48 53 51 51 52 54 58 57 53 52 55 59 57 46 43 50 57 63 68 71 76 86 95 95 82 57 37 33 29 18 12 12 12 12 13 16 16 16 17 16 12 10 9 10 16 26 42 54 54 44 29 18 12 10 10 10 11 12 12 12 12 12 13 14 14 15 15 16 17 19 23 27 32 39
28 33 34 30 32 34 32 31 33 35 40 42 47 52 51 52 54 53 54 55 57 58 56 62 65 53 47 54 57 61 67 70 80 89 89 83 68 42 30 29 19 9 11 11 10 12 14 15 16 18 18 16 12 10 8 11 20 35 52 62 63 54 39 24 15 11 10 10 10 11 11 12 13 14 16 18 19 22 26 31 37 45 52 58 65 73
30 32 31 31 34 34 31 32 35 38 41 43 46 49 49 54 56 52 51 54 61 65 61 64 69 57 50 54 56 61 70 75 88 95 87 80 71 48 27 18 11 9 11 10 9 11 12 14 15 16 17 16 11 8 8 16 31 51 66 70 67 57 41 26 14 10 9 10 11 12 13 17 21 26 32 38 45 53 61 69 75 81 85 87 90 94
32 34 34 35 36 35 35 35 37 41 44 48 50 50 50 52 51 49 51 57 65 67 62 64 68 57 47 52 59 66 76 87 91 80 66 62 52 31 17 13 10 10 9 8 9 10 11 14 15 16 16 13 9 7 10 25 49 68 75 76 72 60 45 27 14 10 10 11 12 16 21 27 35 47 61 72 80 85 89 92 93 94 95 95 97 97
33 35 37 39 38 38 39 38 40 44 48 52 54 50 46 44 43 46 54 63 68 67 64 67 68 56 45 51 63 69 76 85 82 63 50 42 24 9 11 12 9 9 9 8 10 11 13 16 17 17 14 11 9 7 14 37 64 76 78 79 76 67 51 31 16 12 11 13 17 21 27 37 55 74 86 92 93 93 94 93 93 95 96 98 100 100
31 33 36 39 39 40 42 40 41 44 46 48 48 46 42 40 41 46 57 67 66 62 64 65 62 55 50 53 61 71 78 76 63 49 40 29 12 6 10 9 7 9 8 9 11 12 14 18 18 16 12 10 8 7 21 49 71 78 79 80 78 72 56 34 19 14 13 17 20 24 37 58 79 90 91 91 92 93 95 94 93 95 97 100 102 101
30 30 33 36 37 38 39 38 38 41 43 43 46 47 42 39 41 45 55 62 61 63 66 60 59 61 55 52 65 81 84 68 49 37 26 13 6 7 8 7 8 9 7 10 12 12 14 16 16 13 10 9 6 9 29 57 71 76 77 77 79 76 61 40 23 15 16 20 22 33 58 81 90 88 86 89 94 96 95 94 94 97 100 101 101 98
30 31 32 34 35 36 36 37 37 40 43 43 44 45 39 39 42 45 51 56 58 67 66 54 60 70 58 54 71 83 74 56 45 36 21 9 7 8 7 7 7 6 7 10 11 11 13 14 13 11 8 8 6 12 37 62 70 73 73 73 77 77 67 49 29 20 20 20 26 49 77 90 88 85 86 91 96 97 96 96 97 100 100 99 98 97
31 32 33 34 35 35 36 37 39 42 44 43 40 37 37 40 43 46 50 53 58 66 63 57 65 68 58 61 73 73 61 53 48 36 17 8 7 7 6 6 6 6 8 9 10 11 12 10 10 9 7 7 6 17 44 63 67 68 69 69 72 76 75 59 35 24 21 21 40 70 87 87 85 87 91 96 99 99 98 100 100 100 99 98 99 99
33 33 34 36 34 34 37 39 41 43 43 41 36 35 38 41 45 48 51 53 59 63 61 65 70 63 59 68 71 63 56 55 50 34 16 8 7 6 6 5 5 6 7 8 9 10 9 9 8 7 7 7 7 24 50 62 64 66 66 68 70 74 78 64 40 26 20 28 58 82 85 84 88 91 95 99 101 101 101 101 100 99 99 99 100 100
35 35 36 37 36 35 37 40 43 44 42 39 36 37 40 43 46 49 51 54 60 61 62 69 71 62 60 67 65 57 55 54 47 31 15 8 7 5 5 5 5 6 7 7 8 8 7 7 6 6 8 6 9 31 54 61 64 66 66 70 72 74 78 69 47 27 19 38 71 84 81 85 89 91 96 99 100 101 99 98 98 99 100 100 100 101
35 36 36 39 40 38 39 42 44 45 43 39 37 39 42 45 48 50 52 54 57 59 63 67 66 60 60 63 61 57 55 52 44 30 16 10 8 5 5 5 5 5 6 6 7 7 6 6 5 6 7 5 13 37 56 61 64 66 68 73 76 77 78 73 53 28 23 52 78 79 79 86 88 91 95 97 97 97 96 98 100 100 100 101 102 102
35 37 37 41 44 41 41 44 45 47 46 42 40 42 44 46 50 52 52 53 55 60 61 61 60 60 60 62 61 58 56 51 43 31 19 13 9 5 5 5 5 6 6 7 7 6 6 6 5 6 6 5 17 42 58 61 62 66 71 76 80 80 77 74 55 26 29 63 79 73 78 84 86 90 93 93 94 94 96 99 101 100 101 102 103 101
35 38 39 42 46 43 42 44 48 51 48 43 41 44 46 49 52 53 54 53 55 59 60 59 60 60 61 63 63 61 57 52 46 34 21 14 9 5 5 5 5 6 5 6 7 6 5 5 5 7 6 6 22 46 58 60 63 70 76 79 83 81 77 75 55 27 37 70 75 69 76 81 83 88 90 91 93 93 96 98 99 101 102 102 101 100
36 38 40 42 45 45 44 48 54 54 47 42 44 45 47 52 54 54 55 54 55 58 60 61 61 60 62 64 65 64 61 55 49 37 24 16 9 5 6 5 4 6 5 6 7 5 5 5 5 7 5 7 28 49 57 59 65 74 80 82 84 82 76 74 53 30 47 73 70 67 74 77 81 87 88 90 92 92 96 97 98 102 102 100 100 99
36 38 41 43 46 48 49 52 56 52 42 40 44 45 49 54 55 56 54 50 53 59 61 61 61 61 64 66 66 67 64 59 53 42 30 20 10 6 6 4 4 5 4 6 6 4 5 4 4 7 4 9 32 50 55 60 67 75 81 82 83 80 76 71 49 33 54 74 66 66 74 75 79 85 86 90 92 92 94 95 97 100 98 96 97 98
36 39 43 46 48 50 53 53 52 49 44 43 45 47 51 54 54 58 55 46 50 61 62 60 61 62 65 68 68 68 67 64 57 45 33 23 12 7 7 4 4 5 4 6 6 4 5 4 4 7 3 10 34 51 55 61 69 76 79 80 81 78 74 67 45 35 58 72 62 65 74 75 79 82 83 88 89 90 93 94 95 94 91 93 96 97
35 38 42 48 50 51 53 52 51 53 50 46 46 48 53 55 54 59 59 49 48 59 62 61 62 63 65 69 71 71 70 67 59 44 33 22 12 8 7 4 4 4 4 6 5 4 5 3 4 6 2 12 36 50 55 62 68 72 74 75 77 74 71 64 41 36 61 70 61 65 72 72 78 81 82 86 87 88 92 92 90 88 89 93 93 91
35 37 40 45 47 49 53 52 52 53 50 45 47 50 54 55 55 60 63 54 50 59 63 62 62 63 66 70 73 75 73 71 64 50 34 22 13 9 7 5 5 4 4 5 4 4 5 3 4 5 2 13 36 49 54 62 67 68 68 70 71 70 69 60 37 37 62 68 59 63 68 69 76 80 81 84 84 84 87 86 84 86 89 90 86 84
34 36 39 43 45 47 53 54 50 48 45 44 47 51 54 55 56 62 63 56 54 60 63 62 63 63 65 69 73 77 76 74 71 60 43 29 19 12 8 5 4 4 4 5 4 4 4 3 4 4 1 12 35 48 52 60 65 64 62 64 66 67 67 54 34 39 63 67 59 62 66 67 72 77 81 83 80 80 82 83 83 85 86 85 82 81
34 36 39 42 44 48 52 54 51 46 43 45 49 51 54 55 55 59 59 55 58 62 61 62 64 64 65 68 71 76 78 77 75 67 53 39 26 16 11 7 6 4 3 4 4 3 4 3 4 4 1 10 33 46 50 57 62 58 56 59 61 64 63 48 33 43 63 65 60 62 65 67 70 74 78 79 78 78 81 84 87 84 82 85 85 85
35 37 39 41 43 46 48 52 53 48 42 45 51 52 54 54 53 56 58 58 61 62 60 63 64 64 66 68 69 74 78 79 79 73 62 49 34 23 15 10 6 4 3 4 4 3 4 3 4 5 1 7 29 44 48 55 59 53 51 55 56 59 58 43 35 48 62 62 60 62 64 66 69 71 75 76 77 79 81 86 89 85 82 86 90 88
35 37 39 40 42 44 48 51 53 48 44 48 53 52 53 55 56 58 60 61 63 63 62 63 64 64 66 67 68 72 76 78 81 78 71 57 42 29 20 13 9 6 4 4 4 3 4 3 3 5 1 3 23 41 46 53 57 51 48 52 53 55 54 42 38 52 61 59 59 61 62 66 68 70 73 74 76 80 81 82 87 86 82 84 91 92
33 35 37 40 41 44 47 46 43 43 47 50 52 52 55 58 59 60 63 65 65 66 66 66 65 66 67 67 68 71 74 78 82 82 78 68 51 37 26 17 12 8 4 4 4 3 4 4 3 5 3 1 16 37 45 50 55 51 45 48 51 51 49 43 43 54 59 57 58 61 62 66 68 68 70 73 75 78 79 79 85 87 82 82 90 94
32 33 36 38 38 40 41 37 36 44 52 52 49 50 57 62 62 63 67 69 69 69 69 69 69 68 69 69 68 70 72 76 80 84 84 77 63 48 34 23 16 10 5 4 4 3 3 4 3 4 4 0 9 31 44 48 53 51 44 45 49 49 48 46 47 53 56 55 56 59 61 63 66 67 69 71 73 75 76 77 84 86 81 81 90 94
30 33 35 35 37 38 34 30 37 47 50 48 47 48 55 63 64 65 68 69 70 72 72 72 71 71 70 70 68 69 72 75 79 84 87 85 76 61 44 30 20 13 7 4 4 4 3 4 3 4 4 1 5 23 40 46 50 51 44 42 46 48 47 48 49 52 54 54 55 58 61 64 65 67 68 70 71 73 74 76 82 82 79 83 90 93
30 33 35 35 39 40 30 28 41 48 41 38 42 46 53 59 60 60 63 64 65 69 71 71 71 71 71 71 69 69 72 74 78 82 86 88 85 73 56 40 27 18 10 5 4 4 4 4 3 3 5 2 1 14 33 43 48 50 46 41 43 46 46 47 49 50 51 54 56 58 62 66 66 67 69 70 71 72 73 76 81 80 78 84 90 90
30 34 36 36 39 39 29 28 43 44 30 25 32 37 42 46 45 45 51 54 55 59 63 65 67 68 69 70 70 70 72 75 77 81 85 89 90 83 69 52 37 25 13 6 5 5 4 4 4 3 4 4 1 6 24 38 45 49 48 42 40 43 45 45 47 49 50 52 56 58 61 65 66 67 69 70 72 73 74 76 80 80 79 83 87 88
32 35 37 38 40 36 26 30 44 39 20 15 21 23 25 30 32 34 38 40 43 48 51 53 58 64 68 70 69 69 73 76 77 80 84 87 91 90 81 66 51 35 20 10 6 6 4 5 5 3 3 5 2 2 13 30 41 46 50 48 42 40 44 45 45 48 51 53 55 57 58 62 65 67 69 70 72 75 76 77 80 81 82 85 88 90
34 36 38 41 43 33 23 31 46 40 20 12 16 16 16 21 26 28 28 29 33 38 42 44 47 54 62 68 69 70 72 75 79 82 84 87 91 93 88 78 64 47 28 15 8 7 5 5 5 4 3 4 4 2 6 20 34 42 47 51 46 41 42 45 45 46 50 53 56 57 58 60 63 64 65 67 70 74 78 79 80 82 86 89 91 95
36 39 39 41 40 30 20 25 34 30 19 15 18 18 17 20 24 24 23 24 27 30 34 37 39 43 49 56 63 69 72 75 78 82 83 86 90 93 92 87 77 61 41 24 14 10 7 5 5 5 4 3 4 4 3 11 25 35 42 48 50 46 44 45 47 47 48 51 56 59 60 61 62 63 62 63 65 69 74 76 78 81 84 85 86 90
Wind_Speed
14 16 20 24 24 23 25 26 25 25 24 27 29 25 23 23 27 28 29 34 36 36 28 20 24 23 27 30 16 14 22 22 24 32 31 26 27 31 35 37 35 34 34 31 30 30 29 28 28 31 37 46 53 58 59 60 61 58 57 58 59 58 58 61 62 62 62 61 60 60 59 58 57 56 56 56 55 54 53 52 54 54 54 53 52 51
14 18 23 23 22 22 24 25 25 26 27 29 27 24 21 18 29 35 31 34 35 32 26 22 25 26 30 28 16 16 21 22 26 32 30 27 30 35 38 37 35 34 34 32 28 26 26 29 36 47 56 62 64 64 63 64 61 50 44 47 50 51 50 50 52 52 55 56 54 54 54 55 54 52 50 50 50 49 48 48 48 49 49 51 51 51
16 20 23 21 21 23 24 25 26 27 28 27 23 27 29 26 33 35 31 33 30 24 23 26 26 23 27 23 16 19 23 24 28 30 27 28 35 40 41 38 37 37 35 30 26 27 32 41 53 62 68 69 67 65 62 61 57 50 48 48 48 49 43 39 41 43 46 49 48 47 48 49 49 47 45 45 46 46 46 46 47 47 48 49 49 50
16 19 21 21 21 23 25 26 27 27 25 23 26 30 33 34 34 32 33 32 25 18 19 26 25 18 21 21 20 24 25 26 30 30 28 33 41 43 41 37 37 37 32 27 29 38 49 59 66 69 69 66 62 60 59 59 58 55 53 48 45 47 42 36 36 38 40 43 44 42 42 43 44 43 42 44 46 46 45 45 46 47 48 50 51 51
16 18 21 21 21 24 26 27 26 28 26 24 28 31 33 38 32 27 31 31 25 16 16 23 20 12 15 22 25 24 24 28 31 31 31 39 46 44 40 37 33 30 28 33 45 56 64 69 69 68 65 60 57 56 56 56 57 54 50 47 44 42 39 37 36 38 38 40 41 38 36 37 37 37 38 41 43 43 44 45 46 47 48 50 51 52
15 18 21 20 23 26 26 27 26 28 28 21 24 31 35 35 29 25 27 27 22 12 14 20 13 7 13 21 24 22 25 30 31 31 36 45 48 43 38 34 29 31 39 49 60 66 68 68 64 61 58 56 56 55 55 54 54 53 51 50 47 40 37 38 37 37 36 37 39 39 36 34 33 34 35 38 40 41 42 44 46 47 47 49 51 52
13 17 21 21 23 26 26 26 26 28 26 17 21 33 35 30 25 23 22 21 17 12 15 13 6 12 16 16 18 22 26 29 28 33 43 49 47 41 34 31 34 45 54 58 64 68 67 62 57 55 53 53 53 52 52 52 52 51 48 47 47 43 41 40 34 31 32 34 37 37 33 29 30 34 37 37 37 35 36 38 40 43 45 47 50 51
12 16 20 22 22 25 27 25 25 28 24 20 27 34 33 26 22 20 16 14 15 16 13 3 6 19 16 13 21 26 25 26 29 38 48 50 45 39 34 36 46 58 62 62 65 66 61 56 54 51 49 49 52 52 50 48 46 45 43 42 43 41 41 39 30 28 31 31 32 31 30 30 32 36 37 36 33 31 32 32 35 40 45 49 50 51
10 14 21 23 21 25 27 24 25 26 24 26 31 34 29 20 19 17 11 10 13 13 5 4 16 18 11 15 24 22 19 23 33 43 49 50 45 40 39 45 56 62 63 65 65 60 55 53 51 48 47 49 51 51 49 47 45 42 40 38 37 37 39 38 30 28 30 29 30 32 34 35 34 34 34 34 33 34 35 35 37 41 45 49 51 52
10 14 21 22 22 26 26 23 25 25 26 29 32 37 28 15 17 15 8 9 11 8 4 11 22 14 11 18 16 11 16 26 39 47 48 48 44 42 44 52 62 64 64 64 60 56 53 51 45 41 46 49 47 48 50 50 44 37 32 32 35 36 35 33 29 27 28 30 34 38 40 40 39 39 39 39 39 38 37 38 40 43 47 51 54 55
13 13 19 23 23 26 25 23 25 26 28 32 37 40 26 12 15 11 6 10 8 5 9 16 21 16 13 14 10 14 25 35 45 48 47 45 43 44 48 57 65 65 63 61 57 54 53 48 37 33 43 52 50 50 51 47 39 33 31 33 36 35 31 29 27 27 28 30 33 36 38 40 44 44 42 41 40 39 39 40 43 48 52 56 57 58
13 11 17 22 22 25 26 23 26 27 28 33 37 36 21 9 9 6 5 8 5 6 12 18 24 18 12 13 19 28 36 42 46 46 46 46 45 48 52 60 64 56 50 53 56 56 52 48 43 39 45 54 55 53 50 44 39 38 38 38 36 33 32 31 28 27 29 29 30 31 30 32 35 36 36 37 39 41 43 47 51 55 58 59 58 58
12 10 14 22 24 26 26 22 24 25 25 31 36 34 21 9 6 4 5 8 7 9 15 23 25 15 14 21 27 33 40 45 43 43 48 47 46 49 53 61 65 56 47 48 53 55 51 47 48 49 50 53 54 52 48 43 41 42 41 38 35 33 32 33 31 30 31 32 33 33 32 32 33 33 36 39 42 46 50 53 56 58 58 58 57 55
9 7 12 20 23 27 27 22 21 22 21 27 34 30 17 9 8 6 7 9 9 13 21 26 20 13 16 21 27 37 42 41 42 46 46 41 43 51 53 59 63 55 47 44 47 52 52 48 49 51 55 56 53 50 46 41 39 41 41 37 33 33 32 32 33 32 33 36 38 39 40 40 40 41 44 46 49 52 54 56 57 57 57 55 54 52
8 5 11 17 20 26 26 20 21 22 18 22 29 25 13 7 4 4 8 9 11 21 27 22 12 12 18 24 32 39 36 38 45 41 34 36 46 53 53 55 54 44 41 44 47 51 51 50 52 54 56 55 50 49 46 41 38 40 40 37 35 33 32 31 32 33 33 36 40 43 45 47 48 50 51 53 54 55 56 56 56 56 55 53 52 52
10 6 12 17 20 26 23 18 22 21 14 16 22 21 15 9 5 9 13 14 18 22 19 14 12 15 23 29 33 33 34 42 39 25 28 43 51 52 52 52 46 37 37 37 40 50 53 51 54 55 55 54 49 47 46 42 39 38 38 38 37 36 34 32 32 33 33 33 36 40 44 47 50 51 53 54 55 55 55 55 55 54 54 52 51 49
12 7 10 17 23 25 20 18 20 18 15 15 16 19 18 13 8 10 14 16 16 13 10 14 19 22 25 23 23 31 39 39 27 23 40 51 49 49 49 46 42 41 41 36 40 54 58 55 57 56 55 54 49 46 44 42 39 37 37 38 37 37 35 33 33 34 34 32 32 34 37 41 45 48 51 52 52 53 52 52 52 51 49 48 46 44
15 8 8 17 25 24 18 17 18 19 20 15 12 19 19 11 7 7 11 12 9 8 10 13 18 26 22 13 21 37 37 30 28 36 47 49 49 50 41 32 36 46 50 50 53 58 57 56 58 57 55 53 51 47 44 41 38 36 37 37 36 37 36 34 33 33 33 32 31 31 31 32 36 39 41 43 44 45 45 44 44 44 42 41 40 39
17 9 8 18 26 23 17 16 16 19 23 19 16 22 20 8 5 10 11 9 7 8 9 11 18 23 15 14 30 38 32 33 41 45 47 46 48 48 39 32 38 49 55 57 59 59 59 59 59 58 56 53 51 47 43 41 38 35 35 36 35 35 35 34 34 32 32 32 31 30 29 29 30 32 33 35 36 36 37 36 36 37 37 35 34 34
18 9 7 18 24 20 16 14 12 16 22 21 20 22 21 10 7 12 8 5 8 8 8 14 19 14 10 21 36 33 31 41 46 43 39 39 41 43 45 45 47 52 58 59 59 60 59 59 58 58 56 54 52 49 44 41 40 38 36 35 35 35 34 33 32 31 30 29 29 29 28 28 28 29 30 30 31 31 31 31 32 32 31 30 30 30
18 8 8 19 21 13 12 13 12 14 15 16 15 17 20 15 9 12 7 7 7 6 7 12 13 17 21 29 34 31 32 41 42 37 34 37 44 48 50 52 52 55 58 58 60 60 59 59 58 58 56 54 52 50 45 42 40 40 38 36 35 34 34 33 31 30 29 28 28 27 27 26 26 26 27 27 27 28 27 28 28 28 28 28 28 29
16 9 13 22 17 10 12 13 15 16 15 17 16 14 19 17 11 9 5 6 7 7 10 10 13 27 33 30 34 34 33 38 37 32 36 43 47 50 52 52 54 57 58 57 59 60 59 58 57 56 55 53 51 47 43 41 40 41 41 38 35 33 33 32 31 30 28 27 27 26 25 25 24 24 24 24 25 26 26 27 27 28 29 29 30 30
15 9 17 23 16 14 15 13 15 17 18 22 20 17 20 17 12 9 6 11 15 13 16 14 16 26 29 29 36 35 33 37 31 29 38 41 39 46 54 55 56 58 57 57 59 59 59 58 55 55 53 50 49 44 40 40 41 42 42 39 35 31 30 30 29 28 27 26 26 25 24 24 23 24 24 25 26 27 28 28 28 28 28 28 27 25
14 10 18 20 14 14 15 12 13 16 18 20 19 22 24 19 17 15 12 17 18 15 17 13 12 23 34 38 39 37 35 34 32 39 47 43 43 52 55 56 58 58 57 57 58 59 59 58 56 54 52 48 46 43 39 40 41 41 40 38 35 32 29 28 28 27 26 25 25 24 24 24 25 26 27 27 27 26 25 24 23 22 21 20 18 16
13 12 17 14 10 10 9 7 9 14 17 14 16 24 26 21 20 20 16 14 11 11 13 11 14 30 44 45 41 40 37 34 41 53 53 48 54 59 56 57 58 57 58 58 58 58 58 57 56 54 51 48 45 42 40 39 39 38 38 36 35 32 29 27 26 25 25 24 24 24 25 26 28 28 27 25 23 21 18 16 15 14 14 13 13 13
15 15 14 9 8 7 8 9 11 16 19 18 21 27 25 20 19 19 15 11 11 12 16 19 27 43 52 48 44 42 39 43 53 56 52 53 58 58 57 58 58 58 59 58 57 59 58 57 56 54 50 47 43 41 40 39 38 37 36 35 34 32 28 25 24 23 23 23 24 25 27 28 28 25 22 19 18 16 14 12 11 10 11 11 11 11
17 18 16 12 13 13 15 18 17 19 23 24 24 25 23 20 19 20 16 14 16 18 24 29 33 44 53 53 47 42 42 51 58 55 55 58 57 57 58 57 58 59 59 57 58 59 58 58 57 55 50 45 42 39 39 39 37 35 35 35 34 31 28 25 23 22 22 23 24 26 28 26 23 19 17 16 15 13 11 9 8 8 9 9 9 9
17 19 18 19 21 21 20 20 18 19 24 26 23 22 22 20 19 21 20 20 19 17 25 35 34 38 50 54 45 42 47 55 57 55 56 57 56 57 57 57 59 59 58 58 58 59 60 58 57 55 50 45 41 39 39 39 37 36 36 35 33 32 29 25 23 22 21 22 25 27 26 22 19 17 16 14 12 10 8 7 6 7 7 8 8 8
16 17 19 23 25 22 19 19 20 23 26 26 21 17 18 20 22 24 25 25 22 21 30 42 41 41 49 50 42 45 52 54 54 54 55 55 55 57 57 58 59 58 58 59 60 60 60 59 57 54 49 44 42 40 39 38 37 37 37 36 34 32 29 25 22 21 21 23 25 25 21 18 17 16 14 11 9 8 7 7 7 8 8 8 9 9
15 17 20 24 26 22 17 20 25 28 29 24 17 14 16 21 25 28 29 28 26 30 38 42 41 43 46 42 42 48 51 51 52 53 54 54 55 57 58 58 59 59 60 60 60 61 60 59 57 52 48 44 41 40 40 38 38 39 39 38 35 32 29 26 22 20 20 22 23 21 18 17 15 13 10 9 7 8 8 8 9 9 9 9 10 10
15 19 20 24 29 25 21 24 28 29 30 21 13 12 16 21 25 28 30 30 29 34 39 37 40 45 43 40 45 50 50 52 53 52 53 53 55 57 57 57 58 59 60 60 61 62 60 59 56 51 48 45 42 41 41 40 39 40 40 38 35 32 28 25 22 20 20 22 20 17 16 15 12 10 9 8 8 9 9 9 9 10 10 10 11 11
16 20 22 24 27 26 25 27 30 30 28 19 12 13 17 22 27 29 31 33 32 35 37 35 39 44 43 43 48 50 50 51 52 52 53 53 54 55 56 57 59 59 60 61 62 62 60 58 55 51 48 45 43 41 41 41 41 41 40 38 35 31 27 24 21 19 19 19 16 14 13 12 10 10 9 9 9 9 8 8 9 9 10 11 11 11
16 19 23 22 22 24 25 27 30 26 17 12 12 16 20 24 28 32 34 35 34 33 33 35 39 43 44 46 50 50 50 50 51 52 53 53 54 54 56 57 58 59 59 60 61 61 60 57 54 51 48 45 43 41 40 41 41 41 40 38 34 30 26 22 19 17 17 16 13 12 11 10 10 9 9 8 8 8 8 8 8 9 9 10 11 12
17 19 22 20 19 24 27 29 26 13 6 13 19 19 21 25 29 33 37 37 34 30 29 34 41 44 44 45 48 50 51 50 51 51 51 52 53 54 55 56 57 58 59 59 60 60 59 57 54 50 47 44 42 41 40 41 41 41 40 37 33 29 23 19 16 14 14 12 9 10 9 9 9 8 8 8 8 7 7 7 7 8 8 9 11 11
18 20 21 21 21 25 27 25 13 5 12 23 22 20 24 28 32 37 41 40 35 28 28 36 42 44 44 46 47 49 51 51 51 51 51 52 53 54 55 56 56 57 58 58 60 59 58 56 53 50 47 44 42 41 41 41 41 40 38 36 32 27 22 17 13 12 12 9 7 8 8 7 8 7 7 7 7 6 6 6 7 7 8 9 9 10
20 20 20 22 21 20 19 14 7 14 27 25 19 21 28 32 35 39 45 45 35 26 32 41 44 44 45 46 47 49 50 51 50 52 53 53 53 54 54 55 55 56 57 58 58 58 56 54 52 49 46 42 41 41 41 41 41 39 38 35 31 25 20 15 11 10 9 5 5 6 6 6 7 6 6 6 6 5 5 5 6 7 8 8 8 9
19 19 20 20 16 15 16 17 19 25 25 19 19 26 31 35 37 38 44 45 32 28 39 45 44 45 46 46 48 48 49 50 50 52 54 53 52 53 53 53 54 54 55 57 57 56 55 53 52 48 44 41 40 41 41 40 40 39 37 33 29 24 18 13 9 8 6 3 4 4 5 5 6 5 5 5 4 4 4 5 6 6 7 7 8 9
18 19 19 16 15 17 18 18 17 14 11 15 25 31 35 39 38 38 44 43 34 37 47 47 45 47 47 46 48 48 49 50 49 50 51 51 50 51 51 52 52 53 54 55 56 55 53 52 51 47 43 40 39 40 40 40 39 38 35 31 26 22 17 11 8 7 4 2 3 3 3 4 4 4 4 4 3 3 3 4 5 5 6 7 7 10
19 20 20 18 19 20 16 11 8 8 12 22 29 33 37 40 40 40 39 36 39 47 50 48 48 48 47 47 48 47 49 51 50 48 48 48 48 49 50 51 51 51 52 53 55 54 52 51 51 47 42 39 38 39 39 38 38 37 33 29 25 20 15 9 6 6 3 1 2 2 2 3 3 3 3 2 2 2 2 3 4 4 6 7 9 11
20 20 21 20 21 20 17 15 14 16 22 28 30 34 38 40 40 33 22 27 45 51 48 47 48 47 47 47 47 47 47 49 50 48 46 47 47 48 49 50 49 50 51 52 54 53 51 50 50 47 42 38 37 38 38 38 37 35 32 28 24 19 14 8 6 5 2 1 2 1 1 1 1 1 1 1 1 2 1 3 4 5 6 9 11 12
21 20 20 20 20 20 19 20 23 27 28 27 30 36 38 38 35 25 21 35 49 48 46 48 47 46 47 46 46 47 46 46 48 48 46 46 47 46 48 48 48 49 50 51 52 52 50 49 49 47 42 37 36 37 37 37 36 34 31 27 23 18 12 7 5 5 2 1 1 1 0 0 1 1 1 1 2 2 1 3 5 7 8 11 13 13
20 18 18 20 19 19 20 22 24 26 25 27 33 38 37 34 33 32 36 45 47 44 45 47 45 46 47 45 45 46 45 46 47 47 47 47 46 46 47 48 47 48 48 50 51 52 50 48 48 46 42 37 35 35 35 35 35 33 30 26 21 16 10 6 5 4 1 1 1 1 1 1 2 2 1 2 3 3 0 3 5 7 9 11 13 14
20 17 17 19 19 17 17 17 16 18 26 33 37 37 36 35 37 40 43 45 44 45 46 45 45 47 46 45 46 46 46 47 48 47 47 47 46 46 46 47 47 47 47 49 50 50 50 48 47 46 42 37 34 34 34 33 33 31 29 25 20 14 9 6 4 3 1 1 1 1 2 2 3 3 2 2 4 4 2 2 5 7 8 10 12 13
21 18 18 21 21 17 16 17 17 23 32 36 35 35 37 39 40 42 43 44 45 46 46 45 47 47 46 46 46 46 46 47 47 47 48 46 46 46 46 46 46 46 46 47 48 49 49 47 46 45 43 37 33 32 32 31 30 30 27 24 19 14 9 6 4 2 0 1 2 2 2 3 3 3 3 3 5 6 4 3 4 6 7 9 10 11
22 22 23 26 27 25 25 26 27 29 32 35 36 37 37 38 40 42 43 44 45 45 45 46 46 46 47 47 46 46 47 47 47 48 47 47 46 46 45 46 46 45 45 45 47 48 48 47 46 45 42 38 33 30 31 30 28 27 26 23 19 14 9 6 4 1 1 2 2 3 3 4 4 4 4 5 6 7 6 5 5 6 6 7 9 9
26 27 28 29 30 30 30 30 29 30 32 34 36 36 36 37 40 41 42 43 43 44 45 45 45 46 47 46 46 46 46 46 48 48 47 47 47 46 45 45 45 45 44 44 45 47 47 46 45 44 42 38 32 29 29 28 27 26 24 22 19 14 9 6 3 1 2 2 3 4 4 5 6 6 6 6 6 7 7 7 7 7 6 6 7 7
28 27 28 29 29 32 34 32 31 32 35 36 36 36 36 38 39 40 42 43 43 44 45 45 45 46 45 45 46 46 45 46 47 47 47 48 47 46 46 45 44 45 44 43 44 45 46 46 45 43 42 39 33 29 28 27 26 24 22 20 18 14 10 6 3 2 3 3 4 5 6 7 8 8 7 7 7 8 8 8 8 8 7 6 6 5
29 27 28 28 29 33 36 35 32 34 36 35 35 36 36 38 39 40 41 42 43 44 44 44 45 45 45 46 45 45 45 46 46 47 48 48 47 46 46 45 45 45 44 43 44 44 45 45 44 43 42 40 35 30 27 26 25 23 21 19 17 13 10 6 4 3 4 4 5 6 6 8 8 9 9 8 8 8 9 10 9 9 8 8 7 5
26 27 27 28 31 36 37 35 33 37 38 36 35 36 37 38 40 40 41 42 42 43 44 44 44 45 45 45 45 45 45 45 46 47 47 47 47 47 46 45 45 44 44 43 43 43 44 44 44 43 41 40 37 32 27 25 25 23 20 19 16 13 10 7 6 6 6 6 6 6 7 8 9 10 10 9 9 9 9 10 10 9 9 9 9 7
23 25 26 28 33 37 37 34 35 39 40 38 37 38 38 38 39 40 41 41 41 42 43 44 44 44 44 44 44 45 45 44 45 46 46 47 47 47 46 46 45 44 44 43 42 42 42 43 43 42 41 39 38 34 28 25 24 23 21 19 16 13 11 8 7 8 8 8 8 8 8 8 9 10 11 10 10 10 10 10 10 10 10 10 9 8
23 25 27 30 34 36 36 34 35 38 41 40 38 38 38 38 38 40 40 40 40 41 42 42 43 44 44 43 43 43 44 44 45 45 46 47 47 47 46 46 45 45 44 43 42 42 41 41 42 41 40 39 38 35 31 26 23 22 21 19 17 15 12 10 9 10 10 11 11 10 10 10 10 11 11 11 11 11 11 11 11 11 11 10 10 10
Wind_Direction
5 1 12 14 10 9 5 4 2 358 353 355 360 357 353 345 341 342 339 343 346 346 352 349 343 332 316 324 311 291 323 322 318 329 330 324 320 326 330 329 325 318 312 302 290 283 278 280 289 298 305 306 304 303 303 303 306 307 302 300 300 301 303 303 301 301 300 298 298 298 298 297 297 297 297 295 294 293 292 291 290 289 288 287 285 284
4 11 19 14 10 8 2 1 0 358 356 359 360 351 349 340 337 345 344 343 344 342 346 343 339 326 315 319 295 286 315 312 317 329 327 322 325 331 332 327 323 316 308 298 292 296 302 307 309 309 308 308 309 309 308 309 313 313 307 303 302 304 308 306 305 305 304 303 302 302 300 299 299 299 298 297 297 295 293 292 289 288 287 286 285 283
10 18 19 13 11 5 1 3 1 2 1 358 356 349 349 344 340 344 342 341 344 339 334 338 338 316 306 311 287 289 305 305 316 326 324 326 331 333 330 324 319 314 306 301 305 313 313 312 312 313 314 316 317 317 316 315 314 311 307 305 304 305 308 305 302 302 302 303 303 302 300 299 299 299 298 297 297 296 294 292 289 287 286 285 284 283
20 21 15 12 10 3 3 3 1 5 3 353 353 350 346 346 343 337 335 342 349 337 326 337 336 302 293 303 293 293 297 300 314 322 324 329 331 331 326 321 317 315 312 312 315 314 314 317 320 322 322 321 319 318 318 315 313 312 310 308 305 305 305 299 297 298 295 296 297 296 294 295 297 298 298 299 300 300 299 297 295 293 292 291 289 287
25 20 12 11 9 5 4 3 1 4 3 355 353 350 344 345 343 332 334 345 350 336 319 332 332 294 290 301 295 292 292 302 316 323 328 330 330 328 322 320 321 322 319 317 320 322 324 325 324 322 320 318 316 315 314 311 310 311 308 306 304 304 302 295 294 294 290 289 288 286 286 290 293 295 296 297 299 299 298 297 296 296 297 296 294 293
23 15 10 11 9 7 4 1 3 2 2 358 348 348 345 342 342 341 340 344 347 337 316 326 333 315 300 292 291 293 299 312 322 326 330 330 327 323 321 324 326 324 322 324 328 329 327 324 320 318 315 313 313 312 311 309 307 306 304 304 302 301 300 296 295 291 286 286 281 276 279 283 283 287 289 290 293 294 294 294 293 293 295 296 296 296
16 12 10 10 9 8 3 0 2 0 3 357 342 347 347 342 344 345 343 341 336 321 309 311 330 329 310 283 289 304 310 318 324 325 328 327 323 320 321 325 324 326 330 331 329 326 323 321 320 318 315 314 315 314 311 309 307 306 305 304 303 301 298 297 296 290 284 285 280 274 275 277 279 286 288 288 291 291 290 291 290 290 292 293 294 295
7 10 9 10 9 5 1 1 359 358 0 352 346 350 348 346 347 341 337 332 319 312 308 305 342 323 310 297 304 312 316 318 321 325 325 323 321 318 317 320 324 328 332 329 324 323 323 323 322 320 318 319 320 318 316 313 310 308 307 306 306 305 300 297 293 285 284 282 274 270 270 272 276 282 285 287 287 285 284 284 286 289 291 292 292 293
2 7 8 9 6 3 2 359 356 358 358 350 348 353 353 349 347 338 324 316 314 316 312 19 348 326 305 313 311 311 314 314 321 325 323 321 320 316 315 322 328 329 327 324 323 325 325 326 324 321 322 323 323 323 323 320 316 312 310 307 303 300 297 295 286 278 281 277 268 268 271 272 274 275 278 279 277 275 276 277 279 284 289 291 291 292
4 5 6 4 1 3 2 356 357 359 355 351 351 356 358 350 344 343 328 314 300 295 327 348 348 339 307 312 305 295 305 311 320 322 319 319 318 316 319 326 328 327 326 326 327 328 329 331 328 321 323 325 323 325 327 324 322 318 311 304 299 297 296 294 284 273 276 275 271 271 271 272 274 276 278 277 273 271 271 272 275 280 288 291 292 292
5 360 1 0 360 1 359 357 359 358 355 356 356 359 360 339 335 335 322 328 295 293 348 343 341 334 310 310 295 294 307 312 318 319 318 318 315 315 321 328 329 328 329 330 329 330 335 337 331 315 318 325 326 328 329 327 323 317 310 306 304 301 297 295 286 272 268 271 272 272 272 273 275 276 276 274 270 267 267 269 274 282 288 291 292 292
5 357 354 356 357 358 359 359 358 358 359 359 359 2 2 334 319 296 304 343 317 319 342 336 332 320 293 299 301 305 312 316 319 319 319 318 315 318 325 330 331 330 329 329 329 333 337 338 335 327 324 328 330 330 330 326 320 316 316 317 313 303 293 291 287 273 264 264 267 269 271 272 272 271 269 267 266 267 270 274 279 284 288 289 289 289
356 352 348 351 355 357 1 2 359 358 356 358 3 6 7 356 338 327 339 342 312 307 323 328 327 308 285 297 300 307 315 318 321 321 320 319 319 324 329 329 329 331 329 326 330 336 338 333 331 333 332 330 330 330 329 326 321 319 321 322 319 310 298 291 286 276 266 261 262 265 266 267 268 267 267 269 270 273 277 280 283 285 287 287 286 286
342 334 342 348 352 354 358 3 3 358 352 358 8 12 13 11 355 342 340 335 313 301 311 319 315 294 300 304 302 310 315 317 321 321 320 321 323 328 328 326 329 333 331 329 332 337 338 334 330 332 334 333 330 329 330 329 326 323 325 326 324 319 311 300 292 284 274 265 262 262 263 264 266 268 270 274 275 277 280 282 284 284 284 284 285 286
352 317 337 346 348 350 355 1 1 1 358 358 6 15 22 21 357 315 322 323 302 301 310 318 309 295 310 309 308 313 315 318 320 321 321 320 321 324 325 326 330 332 330 330 334 337 336 334 333 334 335 334 332 330 331 333 330 327 327 330 328 324 319 311 302 294 285 274 267 265 265 265 267 269 272 274 276 279 281 282 283 283 284 285 286 287
359 306 328 344 347 348 352 356 359 5 7 356 1 10 7 349 305 277 288 284 282 294 307 315 301 299 310 309 310 319 324 325 324 320 315 317 320 322 324 328 331 331 329 326 331 337 337 334 335 337 336 335 336 333 332 334 334 331 330 331 330 328 325 319 312 305 299 290 280 274 271 270 271 271 273 275 277 279 281 281 282 283 285 286 287 288
358 307 325 345 346 348 349 350 357 7 8 358 358 2 355 341 318 287 284 286 285 281 295 313 307 310 317 312 314 328 330 328 323 309 312 319 323 324 326 329 330 332 332 327 328 334 336 337 337 338 339 338 338 337 334 335 336 335 333 331 329 329 328 324 319 313 310 305 297 289 283 279 277 276 277 278 279 280 281 282 284 285 286 287 287 287
356 333 338 347 344 345 345 345 351 358 2 2 355 357 357 350 342 322 305 308 309 293 301 314 310 311 318 314 319 329 329 322 315 312 317 324 325 325 329 329 326 331 334 332 333 334 336 338 337 339 341 340 339 340 336 335 337 336 334 332 330 329 328 327 323 319 316 313 308 303 297 290 285 282 281 281 282 282 284 285 285 286 287 287 287 287
360 346 339 347 344 341 344 352 354 347 349 354 352 359 8 7 322 326 323 314 319 317 307 313 313 310 308 308 318 326 327 322 322 322 323 325 324 326 330 326 322 328 334 335 335 336 338 338 338 340 342 341 340 340 337 334 336 337 335 333 331 330 328 327 325 322 319 316 313 310 305 300 296 292 290 288 288 287 288 288 287 287 288 288 288 287
1 350 327 343 344 342 345 354 352 334 339 349 350 355 4 5 315 320 322 279 299 314 304 314 317 307 305 317 321 327 329 328 329 327 325 326 325 327 329 328 327 330 335 337 336 337 338 338 338 339 342 343 341 339 338 335 334 336 335 332 331 329 328 327 325 324 321 318 315 312 309 306 303 300 297 295 294 293 292 291 290 289 290 290 289 287
360 350 321 341 349 345 333 330 327 325 332 340 339 341 350 356 339 322 296 252 284 300 305 318 306 295 311 323 325 331 332 329 327 323 321 323 324 327 330 330 332 334 337 337 337 338 339 338 339 340 342 343 341 338 335 333 333 333 333 331 329 328 328 327 326 325 324 321 319 316 313 311 308 305 303 301 299 297 295 294 292 293 293 291 289 288
358 344 328 341 346 327 313 313 320 327 330 331 328 330 340 348 347 332 298 272 282 271 289 302 288 299 315 326 329 333 330 324 322 318 319 322 323 328 331 331 334 337 338 338 337 338 338 338 339 340 341 341 339 337 334 333 333 333 331 330 328 327 326 326 326 326 325 324 322 319 317 315 313 311 308 306 303 300 298 297 295 294 293 290 289 288
354 342 339 344 338 322 323 322 323 326 328 329 326 327 336 339 338 335 311 302 301 283 281 278 271 294 313 324 327 330 326 321 322 320 322 323 324 328 331 333 336 338 338 339 338 338 338 339 340 341 341 340 338 337 336 335 334 333 331 331 329 328 327 326 327 327 326 324 323 321 319 318 316 314 310 307 304 301 299 298 296 295 293 292 293 292
354 345 343 342 324 312 311 307 313 319 328 331 324 324 328 327 326 325 308 301 298 285 292 294 271 294 316 326 326 326 323 319 319 323 326 328 329 331 333 334 336 337 338 339 339 338 338 339 342 342 341 341 340 338 338 337 335 333 332 332 331 331 329 328 328 327 326 325 323 323 321 320 318 315 313 310 307 305 303 301 300 299 299 299 301 300
356 346 344 338 323 314 302 299 315 320 330 327 305 310 318 320 322 322 316 307 286 274 298 297 266 292 316 329 327 324 323 319 321 326 330 332 333 334 335 335 336 337 338 339 339 339 339 340 342 341 341 343 342 340 339 337 335 334 334 334 333 331 329 329 329 327 326 325 324 324 324 322 320 318 316 315 312 312 312 310 310 309 310 313 313 311
349 347 347 339 332 331 310 310 316 312 314 307 299 307 315 319 318 317 313 296 278 284 289 280 280 300 320 334 331 324 324 324 327 332 334 336 335 335 335 335 336 338 339 339 339 339 341 341 341 341 343 344 343 341 339 338 337 336 335 335 334 332 330 329 330 329 327 326 326 326 327 325 323 323 323 322 320 321 321 319 319 320 322 324 324 324
342 341 345 335 325 320 310 311 312 306 304 304 306 307 308 313 312 310 300 281 288 294 287 290 295 303 322 338 334 323 324 328 333 337 338 337 336 335 335 335 337 338 339 339 340 341 343 342 341 343 344 345 344 342 340 339 338 337 336 336 336 334 332 331 332 332 329 328 329 330 330 328 329 331 329 326 326 327 330 329 330 335 337 340 344 349
338 336 338 332 328 328 322 318 316 310 308 312 312 304 303 308 307 303 298 298 306 288 285 309 312 301 320 338 334 323 328 332 335 338 338 337 336 335 335 336 337 338 339 340 342 343 343 342 342 343 344 346 345 343 342 340 339 338 337 337 337 336 335 333 333 333 331 332 333 334 333 333 335 335 330 330 333 337 344 349 356 6 9 9 9 6
333 332 333 328 331 334 327 322 325 322 318 318 313 301 300 305 307 309 309 311 306 279 291 317 318 309 325 339 332 327 332 334 335 338 337 337 336 335 336 337 337 338 340 342 344 344 343 343 343 343 345 346 345 344 344 342 339 338 338 337 337 337 337 335 334 333 334 336 337 337 337 338 338 337 335 340 349 0 16 28 35 38 33 27 22 14
328 330 332 327 330 337 334 330 333 329 324 319 306 295 299 304 310 315 317 317 306 296 307 317 313 317 333 336 328 329 334 334 336 338 337 337 337 337 337 337 338 340 342 344 344 344 344 343 343 344 345 346 346 345 344 343 340 339 338 337 337 337 337 337 335 335 337 339 341 342 342 343 344 346 354 6 22 40 50 50 49 47 42 37 31 24
325 326 331 327 328 337 342 337 335 331 325 315 292 291 306 310 312 314 318 320 312 310 318 315 309 322 337 333 328 333 337 338 338 338 337 338 338 337 337 338 339 342 344 345 345 344 344 344 344 345 345 346 346 346 345 344 342 340 338 337 337 337 337 337 335 336 339 343 346 348 351 354 1 12 25 39 51 54 54 52 54 55 51 44 37 32
325 323 329 331 327 332 337 335 334 329 319 305 291 302 312 314 317 318 321 324 321 320 321 314 313 327 336 334 333 337 339 339 339 338 339 340 339 338 338 340 341 343 344 345 345 344 345 345 345 346 346 346 346 347 346 345 343 340 338 338 337 338 338 337 335 336 341 346 351 357 5 15 28 38 43 50 51 51 54 57 61 60 53 46 40 34
324 322 327 330 323 323 329 332 332 326 311 303 314 317 317 319 322 323 323 327 329 325 316 313 321 332 336 335 336 339 340 340 340 340 340 340 340 340 340 342 342 342 344 344 345 345 345 344 345 346 347 346 346 347 346 345 343 341 340 339 339 339 339 336 334 336 342 349 358 11 23 36 42 42 43 43 45 52 58 60 61 60 54 46 38 32
321 321 324 325 316 317 326 332 332 322 297 319 322 319 321 324 325 325 324 328 331 323 312 318 329 335 335 335 336 338 340 341 340 340 339 339 342 342 342 343 342 342 343 344 345 346 345 344 345 346 347 346 346 346 347 346 345 343 341 340 340 341 341 337 334 337 344 352 7 25 38 43 39 38 38 40 50 58 60 61 63 61 53 42 34 29
319 320 320 320 314 314 326 337 339 294 308 321 321 323 328 329 329 327 326 332 336 327 321 328 333 336 335 334 337 338 340 341 340 338 339 342 344 344 343 343 342 342 343 344 345 346 346 345 345 346 347 346 346 347 347 347 346 344 343 342 342 343 343 338 334 340 348 359 22 38 45 39 31 34 38 45 57 61 62 67 64 58 50 40 32 26
317 317 316 318 316 314 323 332 316 311 322 326 325 328 330 331 333 328 328 336 340 331 331 335 335 335 335 334 337 339 339 341 340 338 341 344 345 344 344 343 342 343 343 344 346 347 346 345 345 346 347 346 346 347 348 348 347 346 346 345 343 344 344 339 338 344 352 11 38 47 48 35 28 34 40 50 64 66 69 70 60 54 48 37 28 20
313 311 313 316 313 310 310 305 303 312 323 328 329 330 330 331 333 327 325 335 342 334 334 337 334 334 335 334 336 338 337 339 341 340 342 344 343 343 343 342 342 343 343 344 345 347 347 346 346 347 347 347 347 348 348 348 348 348 348 347 345 345 345 342 340 346 356 25 54 59 51 32 28 37 44 55 67 72 72 61 49 46 37 27 22 20
310 309 310 307 301 304 307 309 312 310 310 321 327 330 330 330 332 326 321 330 342 338 335 335 333 334 335 334 336 337 336 337 340 340 339 340 341 341 342 343 343 343 343 344 346 347 347 346 347 348 347 348 349 349 349 349 350 351 351 350 348 347 347 344 342 348 1 42 80 77 54 32 31 39 46 57 69 77 70 47 38 37 28 16 18 30
310 308 307 300 297 300 298 296 296 277 293 317 325 328 329 329 329 327 321 326 336 336 333 333 333 332 333 333 335 337 336 337 339 339 337 338 340 341 342 343 344 342 343 344 346 347 348 347 348 349 348 349 350 350 349 350 352 353 353 353 352 350 349 347 345 348 1 87 111 92 60 35 32 42 48 56 81 90 61 34 27 25 19 11 14 31
311 308 304 298 296 297 289 279 280 289 305 318 324 326 328 327 327 327 320 323 330 331 330 331 330 330 331 332 333 335 336 336 337 338 338 338 340 341 342 343 344 343 344 345 346 347 348 348 349 350 349 349 350 351 350 351 353 355 355 356 357 354 351 350 347 347 4 127 136 129 86 26 34 66 54 65 124 116 54 16 6 3 8 8 10 23
310 306 301 297 294 291 280 274 285 300 312 320 323 325 326 325 324 320 313 319 325 327 328 329 328 328 329 330 331 333 334 334 335 337 338 339 341 342 342 343 344 344 344 345 346 347 348 348 350 350 349 349 351 351 351 351 353 356 358 360 360 356 352 351 349 351 10 144 161 181 194 17 145 143 79 136 156 139 45 358 354 354 2 7 7 14
307 304 299 298 298 294 285 280 288 304 318 324 324 324 324 321 318 316 317 321 324 325 326 327 327 327 328 329 329 330 332 334 335 337 338 339 341 342 342 344 344 344 345 345 345 346 348 349 350 351 350 350 350 351 352 352 353 357 0 1 0 357 354 352 355 360 13 160 175 202 216 181 171 166 136 165 179 179 233 342 348 352 359 4 4 9
301 297 295 299 303 302 293 284 286 306 321 323 322 321 321 318 317 318 321 322 323 325 326 327 327 327 328 328 328 329 331 333 335 337 338 339 340 342 342 343 344 345 346 346 345 346 347 349 351 352 351 350 350 351 352 351 352 356 0 1 0 358 354 349 354 6 45 178 198 215 208 190 186 180 167 179 192 197 223 304 333 345 353 1 4 6
301 297 297 300 303 298 286 287 302 316 319 320 319 319 320 320 320 321 323 323 324 325 326 327 327 328 328 328 328 329 330 332 334 336 337 338 340 341 342 343 344 345 346 346 345 346 347 348 351 353 352 351 350 350 351 351 351 355 359 1 0 358 353 346 348 360 128 196 218 218 208 204 204 201 198 198 200 209 228 265 304 326 342 355 1 6
303 306 304 300 298 295 293 302 317 323 318 316 319 321 322 321 321 322 322 323 323 324 325 326 327 328 328 329 328 329 330 331 333 335 336 338 339 340 341 342 343 345 346 346 346 346 347 348 350 353 353 351 349 349 350 350 349 352 357 0 359 355 350 346 343 327 211 213 226 226 223 225 226 224 221 214 213 223 234 249 277 302 326 346 355 4
307 309 305 302 302 303 307 318 326 322 317 317 321 324 324 321 320 321 322 322 323 324 325 326 327 327 328 328 328 329 329 330 332 333 335 337 338 340 340 341 343 344 345 346 346 346 347 348 349 352 354 352 349 348 349 349 348 350 354 358 358 354 347 342 338 273 220 229 238 237 242 248 247 245 240 230 227 231 236 245 262 282 311 335 343 358
311 308 303 304 304 302 311 327 329 320 319 323 324 324 324 321 321 322 321 322 324 324 325 326 327 327 328 328 328 329 329 330 331 332 334 336 338 339 339 340 342 343 344 346 346 347 347 348 349 351 353 353 351 348 347 348 348 347 350 354 356 352 344 335 316 257 237 244 252 256 260 263 262 260 256 250 247 244 242 247 257 272 299 317 321 339
309 306 304 307 305 302 312 327 328 319 321 326 326 325 324 321 321 323 323 323 325 325 325 327 327 327 328 329 329 329 330 330 330 331 333 335 337 338 339 340 341 342 344 345 346 347 347 348 348 350 352 353 352 349 346 346 346 345 344 347 350 349 342 326 294 259 247 252 261 267 271 271 270 271 270 265 261 256 249 248 253 268 288 298 297 309
305 304 307 307 305 308 318 328 326 320 324 330 329 326 325 323 323 324 324 325 326 326 326 327 327 328 328 329 330 330 330 330 330 331 332 334 336 337 338 339 340 341 343 344 345 346 347 347 348 349 350 352 353 351 347 345 345 344 341 339 340 342 337 320 291 269 257 257 262 267 272 274 274 276 278 273 267 262 253 248 253 267 281 287 290 297
303 304 307 304 305 312 321 328 324 319 323 330 330 326 325 325 324 324 325 327 327 327 328 328 329 329 329 330 330 330 330 330 330 330 332 333 335 337 337 338 339 340 342 343 344 346 347 347 347 347 348 351 353 352 348 344 343 342 339 334 331 331 328 314 293 277 266 262 261 262 267 271 274 278 280 277 273 267 258 252 255 263 271 277 284 291
302 306 309 307 309 316 323 326 322 317 320 327 328 325 325 326 324 323 326 327 328 328 329 329 330 331 331 332 332 331 330 330 330 330 331 332 334 335 337 337 338 339 340 342 343 344 346 347 346 346 347 349 351 351 350 345 342 341 339 333 325 321 317 308 293 279 272 268 264 263 265 267 271 276 279 279 278 273 266 261 258 258 261 268 275 279